Startseite
Über Mich
AHP4
Galerie
Sehschlangen
Tourenbuch
Bookmarks
Elektronik
Bewertung
Geschichten
[Tagesmessung] [Jahreswerte] [Information]

Messwerte vom 15.03.2022

Die letzten Messwerte von 23:58:47 Uhr:
KategorieMesswert
Temperatur [°C]1
Luftdruck [mBar]1009
Sonneneinstrahlung0
Wind [km/h]0 aus Südost
Niederschlag [l/m²]0
rel.Luftfeucht.96.6%
CO2 [ppm]407

Diagramme
Messwerte vom 15.03.2022
Tagesaggregation
KategorieMinimumMaximumSchnittSumme
Temperatur [°C]-1145.7646
Luftdruck [mBar]100610131010.5542
Sonneneinstrahlung22696.9417
Wind [km/h]7
rF [%]69.396.690.38
Niederschlag [l/m²]0
CO2 [ppm]3961043620.9
Einordnung alsFrosttag
Vegetationstag

Messungen an benachbarten Tagen: Zur Jahresaggregation 2022
Tabelle aller Messwerte
UhrzeitTemperatur [°C]Luftdruck [mBar]SonneWind [km/h]RichtungRegen [l/m²]rF [%]CO2 [ppm]
00:01:48 3 1013 0 0 SO 0 96.6 1043
00:04:49 2 1013 0 0 SO 0 96.6 1033
00:07:47 2 1013 0 0 SO 0 96.6 1033
00:10:49 2 1013 0 0 SO 0 96.6 1031
00:13:47 2 1013 0 0 SO 0 96.6 1018
00:16:48 2 1013 0 0 SO 0 96.6 1014
00:19:47 2 1013 0 0 SO 0 96.6 1016
00:22:48 2 1013 0 0 SO 0 96.6 1018
00:25:47 2 1013 0 0 SO 0 96.6 1010
00:28:50 2 1013 0 0 SO 0 96.6 1004
00:31:46 2 1013 0 0 SO 0 96.6 998
00:34:47 2 1013 0 0 SO 0 96.6 991
00:37:47 2 1013 0 0 SO 0 96.6 1002
00:40:49 2 1013 0 0 SO 0 96.6 1000
00:43:47 2 1012 0 0 SO 0 96.6 987
00:46:48 2 1013 0 0 SO 0 96.6 976
00:49:49 1 1013 0 0 SO 0 96.6 984
00:52:46 1 1013 0 0 SO 0 96.6 978
00:55:46 1 1013 0 0 SO 0 96.6 973
00:58:46 1 1013 0 0 SO 0 96.6 972
01:01:46 1 1013 0 0 SO 0 96.6 974
01:04:48 1 1013 0 0 SO 0 96.6 964
01:07:47 1 1013 0 0 SO 0 96.6 958
01:10:49 1 1013 0 0 SO 0 96.6 960
01:13:48 1 1013 0 0 SO 0 96.6 960
01:16:47 1 1013 0 0 SO 0 96.6 963
01:19:47 1 1013 0 0 SO 0 96.6 964
01:22:48 1 1013 0 0 SO 0 96.6 961
01:25:46 1 1013 0 0 SO 0 96.6 963
01:28:46 1 1013 0 0 SO 0 96.6 943
01:31:50 1 1013 0 0 SO 0 96.6 943
01:34:46 1 1013 0 0 SO 0 96.6 944
01:37:48 1 1013 0 0 SO 0 96.6 944
01:40:47 1 1012 0 0 SO 0 96.6 938
01:43:47 1 1013 0 0 SO 0 96.6 943
01:46:46 1 1013 0 0 SO 0 96.6 937
01:49:48 1 1013 0 0 SO 0 96.6 934
01:52:47 1 1013 0 0 SO 0 96.6 919
01:55:47 1 1013 0 0 SO 0 96.6 923
01:58:47 1 1013 0 0 SO 0 96.6 926
02:01:46 1 1013 0 0 SO 0 96.6 929
02:04:47 1 1013 0 0 SO 0 96.6 925
02:07:49 1 1013 0 0 SO 0 96.6 933
02:10:48 1 1013 0 0 SO 0 96.6 930
02:13:47 1 1013 0 0 SO 0 96.6 922
02:16:47 1 1013 0 0 SO 0 96.6 920
02:19:46 1 1013 0 0 N 0 96.6 914
02:22:46 1 1013 0 0 N 0 96.6 923
02:25:49 1 1013 0 0 SO 0 96.6 913
02:28:49 1 1013 0 0 SO 0 96.6 908
02:31:48 1 1013 0 0 N 0 96.6 903
02:34:47 1 1013 0 0 N 0 96.6 916
02:37:48 0 1013 0 0 SO 0 96.6 923
02:40:45 0 1013 0 0 S 0 96.6 907
02:43:47 0 1013 0 0 S 0 96.6 903
02:46:47 0 1013 0 0 S 0 96.6 903
02:49:46 0 1013 0 0 S 0 96.6 904
02:52:44 0 1013 0 0 S 0 96.6 900
02:55:45 0 1013 0 0 S 0 96.6 904
02:58:47 0 1013 0 0 S 0 96.6 896
03:01:46 0 1013 0 0 S 0 96.6 893
03:04:46 0 1013 0 0 S 0 96.6 892
03:07:48 0 1013 0 0 S 0 96.6 896
03:10:47 0 1013 0 0 S 0 96.6 898
03:13:46 0 1013 0 0 S 0 96.6 902
03:16:47 0 1013 0 0 S 0 96.6 897
03:19:46 0 1013 0 0 S 0 96.6 889
03:22:46 0 1013 0 0 S 0 96.6 888
03:25:46 0 1013 0 0 S 0 96.6 881
03:28:47 0 1013 0 0 S 0 96.6 881
03:31:48 0 1013 0 0 S 0 96.6 887
03:34:46 0 1013 0 0 S 0 96.6 890
03:37:46 0 1013 0 0 S 0 96.6 882
03:40:46 0 1013 0 0 S 0 96.6 888
03:43:47 -1 1013 0 0 S 0 96.6 893
03:46:44 -1 1013 0 0 S 0 96.6 895
03:49:47 0 1013 0 0 S 0 96.6 888
03:52:47 0 1013 0 0 S 0 96.6 885
03:55:50 0 1013 0 0 S 0 96.6 878
03:58:50 0 1013 0 0 S 0 96.6 880
04:01:46 0 1013 0 0 S 0 96.6 878
04:04:47 0 1012 0 0 S 0 96.6 874
04:07:46 0 1013 0 0 S 0 96.6 881
04:10:46 0 1013 0 0 S 0 96.6 882
04:13:47 -1 1013 0 0 S 0 96.6 879
04:16:46 -1 1013 0 0 S 0 96.6 886
04:19:46 -1 1013 0 0 S 0 96.6 879
04:22:48 -1 1013 0 0 SO 0 96.6 876
04:25:46 -1 1013 0 0 SO 0 96.6 876
04:28:49 -1 1013 0 0 SO 0 96.6 873
04:31:46 0 1013 0 0 SO 0 96.6 870
04:34:47 0 1013 0 0 SO 0 96.6 871
04:37:49 0 1013 0 0 SO 0 96.6 872
04:40:47 0 1013 0 0 SO 0 96.6 871
04:43:47 0 1013 0 0 SO 0 96.6 869
04:46:47 0 1013 0 0 SO 0 96.6 867
04:49:49 0 1013 0 0 SO 0 96.6 869
04:52:45 0 1013 0 0 N 0 96.6 869
04:55:45 0 1013 0 0 N 0 96.6 871
04:58:44 0 1012 0 0 N 0 96.6 869
05:01:47 0 1013 0 0 N 0 96.6 864
05:04:48 0 1013 0 0 N 0 96.6 858
05:07:49 0 1013 0 0 N 0 96.6 860
05:10:49 0 1013 0 0 N 0 96.6 863
05:13:46 0 1013 0 0 N 0 96.6 863
05:16:45 0 1012 0 0 N 0 96.6 857
05:19:47 0 1013 0 0 N 0 96.6 861
05:22:47 0 1013 0 0 NO 0 96.6 858
05:25:48 0 1013 0 0 NO 0 96.6 852
05:28:47 0 1013 0 0 NO 0 96.6 856
05:31:50 0 1013 0 0 NO 0 96.6 855
05:34:47 0 1012 0 0 NO 0 96.6 864
05:37:49 0 1013 0 0 NO 0 96.6 864
05:40:47 0 1013 0 1 N 0 96.6 852
05:43:46 0 1013 0 0 N 0 96.6 844
05:46:46 0 1013 0 0 N 0 96.6 838
05:49:46 0 1013 0 0 N 0 96.6 845
05:52:45 0 1012 0 0 N 0 96.6 852
05:55:45 0 1012 0 0 N 0 96.6 853
05:58:47 0 1013 0 0 N 0 96.6 849
06:01:48 0 1012 0 0 N 0 96.6 852
06:04:46 0 1013 0 0 N 0 96.6 849
06:07:47 0 1013 0 0 N 0 96.6 860
06:10:45 0 1013 4 0 N 0 96.6 858
06:13:47 0 1013 6 0 N 0 96.6 853
06:16:45 0 1013 10 0 N 0 96.6 855
06:19:49 0 1013 15 0 N 0 96.6 847
06:22:46 0 1013 23 0 N 0 96.6 849
06:25:48 0 1013 32 0 N 0 96.6 849
06:28:46 0 1013 42 0 N 0 96.6 856
06:31:48 0 1013 52 0 N 0 96.6 853
06:34:48 0 1012 60 0 N 0 96.6 858
06:37:46 0 1013 69 0 N 0 96.6 855
06:40:48 0 1013 78 0 N 0 96.6 849
06:43:46 0 1013 88 0 N 0 96.6 851
06:46:46 0 1012 98 0 N 0 96.6 852
06:49:48 0 1013 107 0 N 0 96.6 853
06:52:46 0 1012 117 0 N 0 96.6 853
06:55:46 0 1013 125 0 N 0 96.6 857
06:58:47 0 1012 133 0 N 0 96.6 848
07:01:49 0 1013 139 0 N 0 96.6 849
07:04:47 1 1013 146 0 N 0 96.6 852
07:07:46 1 1013 152 0 N 0 96.6 858
07:10:47 1 1013 157 0 N 0 96.6 859
07:13:47 1 1013 161 0 N 0 96.6 845
07:16:47 1 1013 164 0 N 0 96.6 841
07:19:46 1 1013 167 0 N 0 96.6 847
07:22:46 1 1012 171 0 N 0 96.6 847
07:25:46 1 1013 174 0 N 0 96.6 841
07:28:48 1 1013 177 0 N 0 96.6 845
07:31:48 1 1013 181 0 N 0 96.6 841
07:34:46 1 1013 184 0 N 0 96.6 839
07:37:46 1 1013 185 0 N 0 96.6 840
07:40:47 1 1013 188 0 N 0 96.6 853
07:43:47 1 1013 190 0 N 0 96.6 868
07:46:49 1 1013 190 0 N 0 96.6 885
07:49:45 1 1013 191 0 N 0 96.6 887
07:52:47 2 1013 194 0 N 0 96.6 884
07:55:46 2 1013 195 0 N 0 96.6 891
07:58:48 2 1013 196 0 N 0 96.6 888
08:01:47 2 1013 197 0 N 0 96.6 887
08:04:49 2 1013 198 0 N 0 96.6 877
08:07:49 2 1013 199 0 N 0 96.6 876
08:10:50 2 1013 200 0 N 0 96.6 870
08:13:47 3 1013 201 0 N 0 96.6 878
08:16:48 3 1013 202 0 N 0 96.6 873
08:19:48 3 1012 204 0 O 0 96.6 864
08:22:47 3 1013 204 0 O 0 96.6 857
08:25:48 3 1012 205 0 O 0 96.6 852
08:28:48 3 1013 206 0 O 0 96.6 850
08:31:49 3 1012 207 0 O 0 96.6 849
08:34:47 4 1013 209 0 O 0 96.6 845
08:37:47 4 1013 210 0 O 0 96.6 835
08:40:48 4 1012 210 0 O 0 96.6 829
08:43:47 4 1013 211 1 O 0 96.6 823
08:46:47 4 1013 211 0 O 0 96.6 811
08:49:48 4 1012 211 0 O 0 96.6 800
08:52:47 5 1013 212 0 O 0 96.6 793
08:55:47 5 1013 211 0 O 0 96.6 791
08:58:47 5 1012 212 0 O 0 96.6 794
09:01:49 5 1013 212 0 N 0 96.6 799
09:04:49 5 1013 213 0 NO 0 96.6 795
09:07:50 6 1013 213 0 NO 0 96.6 787
09:10:47 6 1013 213 0 N 0 96.6 781
09:13:48 6 1013 214 0 N 0 96.6 776
09:16:48 6 1013 215 0 O 0 96.6 768
09:19:47 6 1013 215 0 NO 0 96.6 769
09:22:47 7 1012 216 1 N 0 96.6 769
09:25:47 7 1013 217 0 N 0 96.6 768
09:28:49 7 1013 217 0 N 0 96.6 762
09:31:49 7 1013 217 1 NO 0 96.6 760
09:34:48 7 1012 217 0 NO 0 96.6 756
09:37:51 8 1013 217 1 SW 0 96.6 750
09:40:47 8 1013 217 0 NO 0 96.6 754
09:43:47 8 1012 218 0 N 0 96.6 746
09:46:47 8 1013 218 0 O 0 96.6 723
09:49:49 8 1012 218 0 N 0 96.6 727
09:52:50 8 1013 218 0 NO 0 96.6 728
09:55:48 8 1012 218 0 N 0 96.6 726
09:58:48 9 1012 219 0 SO 0 96.6 720
10:01:48 9 1013 219 0 O 0 96.6 711
10:04:49 9 1013 220 0 NW 0 96.6 707
10:07:47 9 1013 220 0 O 0 96.6 705
10:10:47 9 1013 221 1 N 0 96.6 703
10:13:49 9 1013 221 2 SO 0 96.6 705
10:16:46 9 1013 221 0 SO 0 96.6 703
10:19:49 10 1012 221 0 SO 0 96.6 702
10:22:46 10 1012 221 1 S 0 96.4 694
10:25:51 10 1012 221 0 SO 0 95.8 693
10:28:48 10 1012 221 1 SO 0 96.6 685
10:31:50 10 1013 222 1 O 0 95.9 685
10:34:47 10 1012 222 2 N 0 94.5 685
10:37:47 10 1012 222 0 O 0 93.1 679
10:40:49 10 1012 223 1 SO 0 92.9 677
10:43:49 10 1012 223 1 SO 0 93 677
10:46:49 10 1012 223 2 N 0 90.1 671
10:49:48 11 1012 223 1 NO 0 90.3 674
10:52:48 11 1011 224 3 SO 0 91.9 673
10:55:46 11 1011 224 0 O 0 92.2 676
10:58:46 11 1011 224 3 SO 0 91.1 671
11:01:47 12 1012 224 0 O 0 90.4 659
11:04:47 12 1011 224 3 O 0 88 653
11:07:47 11 1011 225 3 O 0 86 647
11:10:48 11 1012 225 2 NO 0 85.1 655
11:13:49 12 1012 225 2 SO 0 86.5 651
11:16:47 12 1011 226 0 NW 0 87 650
11:19:48 12 1011 226 6 SO 0 87.7 644
11:22:49 13 1011 226 3 S 0 85.4 648
11:25:48 13 1011 226 2 NO 0 84.9 648
11:28:47 13 1010 225 6 S 0 84.1 646
11:31:47 13 1010 225 4 S 0 84.6 642
11:34:48 13 1010 225 6 O 0 83.5 642
11:37:50 13 1011 226 3 S 0 82.7 408
11:40:47 13 1011 226 1 NO 0 81.5 401
11:43:47 13 1011 226 3 O 0 80.3 407
11:46:48 13 1011 226 5 SO 0 80.2 407
11:49:47 13 1011 226 3 S 0 79.6 404
11:52:47 13 1011 226 3 SO 0 78.6 404
11:55:46 13 1011 226 1 SO 0 79.7 407
11:58:47 13 1010 226 7 S 0 79.7 408
12:01:48 13 1010 226 5 NO 0 79.1 404
12:04:48 13 1010 226 0 N 0 78.9 404
12:07:48 13 1010 226 3 SW 0 78.7 404
12:10:49 14 1010 226 2 SO 0 79.5 404
12:13:49 14 1010 226 1 O 0 77.9 402
12:16:46 14 1010 226 3 O 0 77.9 407
12:19:48 14 1010 226 5 SO 0 78.4 407
12:22:47 14 1010 225 4 S 0 78.7 401
12:25:49 14 1010 225 2 W 0 78.2 407
12:28:50 14 1010 225 5 SW 0 77.5 406
12:31:49 14 1010 225 4 SO 0 78.4 408
12:34:49 14 1010 225 2 N 0 77.8 406
12:37:49 14 1010 225 3 SO 0 76.7 404
12:40:46 14 1010 224 1 N 0 76.3 404
12:43:46 13 1010 224 1 S 0 77.4 408
12:46:47 13 1010 224 0 SO 0 77.2 406
12:49:31 13 1010 223 1 O 0 69.3 406
12:52:49 13 1010 223 1 SO 0 76.8 402
12:55:47 13 1010 223 2 N 0 76.7 404
12:58:49 13 1010 223 0 SO 0 77.5 404
13:01:47 13 1010 223 3 SW 0 77.9 407
13:04:47 13 1010 223 0 N 0 76.6 404
13:07:45 14 1009 223 2 O 0 76.4 404
13:10:46 13 1010 223 0 O 0 75.9 407
13:13:47 13 1010 222 1 S 0 74.9 407
13:16:48 13 1010 221 4 SO 0 75.8 407
13:19:46 13 1010 222 4 S 0 76.8 404
13:22:45 13 1010 222 1 O 0 77.3 404
13:25:49 13 1010 222 0 NW 0 76.2 404
13:28:48 13 1010 222 2 SO 0 75.7 404
13:31:46 13 1010 221 1 W 0 75.9 404
13:34:47 13 1009 221 2 O 0 77 407
13:37:47 13 1009 221 2 S 0 76.2 407
13:40:49 13 1010 221 2 SO 0 76.6 404
13:43:48 13 1010 221 0 SO 0 76.5 404
13:46:47 13 1010 220 1 O 0 76.8 404
13:49:46 13 1010 220 7 S 0 77.2 407
13:52:45 13 1009 219 1 O 0 75.9 404
13:55:48 13 1010 218 1 O 0 75.9 407
13:58:49 13 1009 218 1 SO 0 74.9 407
14:01:48 13 1010 218 1 S 0 75.7 405
14:04:49 13 1009 218 4 SO 0 75.7 407
14:07:48 13 1009 219 2 NO 0 75 405
14:10:51 13 1009 219 2 SW 0 73.8 402
14:13:47 12 1010 219 0 S 0 74.6 407
14:16:49 12 1009 218 0 NW 0 74.7 406
14:19:47 13 1009 218 3 S 0 75.1 407
14:22:48 12 1009 219 0 SO 0 75 404
14:25:47 12 1008 219 1 NO 0 74.8 407
14:28:49 12 1009 218 2 W 0 74 407
14:31:46 12 1009 218 1 O 0 74.3 407
14:34:47 12 1009 218 3 NO 0 74.7 401
14:37:47 12 1009 218 3 S 0 74.4 405
14:40:52 12 1009 218 0 NW 0 74 408
14:43:46 12 1009 217 4 SO 0 74.1 404
14:46:51 12 1008 216 7 S 0 74 407
14:49:49 12 1008 216 1 SO 0 74 407
14:52:50 12 1008 216 0 SO 0 72.9 407
14:55:46 12 1008 214 1 S 0 72.3 407
14:58:47 12 1009 212 1 O 0 73.5 405
15:01:51 12 1008 212 1 SO 0 73.7 404
15:04:48 12 1009 213 0 O 0 73.9 407
15:07:48 12 1007 210 2 NO 0 73.4 404
15:10:48 12 1008 209 0 O 0 73.3 404
15:13:50 12 1008 210 2 SO 0 74.1 404
15:16:47 12 1008 210 4 S 0 74.8 407
15:19:48 12 1008 209 0 S 0 75.2 407
15:22:48 12 1008 208 0 N 0 74.7 404
15:25:47 12 1008 207 2 N 0 75.2 407
15:28:46 12 1007 205 0 O 0 75.1 407
15:31:47 12 1008 203 0 O 0 74.5 407
15:34:48 12 1007 202 0 O 0 74.6 404
15:37:46 12 1007 201 1 N 0 75.4 407
15:40:46 12 1007 201 1 N 0 75 404
15:43:50 11 1008 201 1 NO 0 75.5 407
15:46:47 11 1007 200 1 O 0 75.7 407
15:49:48 11 1007 198 0 O 0 76.1 404
15:52:47 11 1009 197 3 N 0 76.4 405
15:55:48 11 1008 197 2 N 0 76.1 404
15:58:48 11 1007 197 0 W 0 76 406
16:01:48 11 1008 197 4 NO 0 76.2 403
16:04:48 11 1007 197 1 SO 0 75.2 404
16:07:49 11 1008 197 3 SO 0 75.4 407
16:10:50 11 1007 198 1 O 0 76.6 406
16:13:49 11 1007 197 1 SO 0 77 407
16:16:47 11 1007 195 1 N 0 77.2 405
16:19:47 11 1007 193 3 O 0 78.2 404
16:22:47 11 1007 192 2 O 0 79 404
16:25:50 11 1007 190 2 NW 0 79.6 408
16:28:47 10 1007 189 0 O 0 80.4 405
16:31:47 10 1007 187 0 NO 0 80.7 404
16:34:51 10 1007 184 2 N 0 80.6 404
16:37:48 10 1007 182 2 N 0 80.4 403
16:40:47 10 1007 181 2 N 0 80.6 404
16:43:48 10 1006 179 0 N 0 81 405
16:46:46 10 1007 178 0 NO 0 81.1 407
16:49:49 10 1007 178 1 N 0 81.4 407
16:52:48 10 1007 178 0 O 0 81.4 404
16:55:47 10 1007 177 1 NO 0 81.4 407
16:58:49 10 1007 176 0 SO 0 81.8 407
17:01:50 10 1007 175 0 SO 0 82 407
17:04:48 10 1008 172 0 SO 0 82.1 407
17:07:48 10 1008 168 0 NO 0 81.9 407
17:10:49 10 1007 162 0 NO 0 81.9 404
17:13:46 10 1008 158 2 0 81.9 404
17:16:47 10 1007 155 2 O 0 81.5 403
17:19:49 10 1007 152 0 NO 0 81.3 404
17:22:47 10 1007 149 0 SO 0 81.3 407
17:25:47 10 1007 144 0 SO 0 81.5 407
17:28:48 10 1007 138 0 SO 0 81.7 407
17:31:47 9 1008 136 0 N 0 82 404
17:34:50 9 1008 137 0 NO 0 82.2 404
17:37:48 9 1007 138 0 NO 0 82.1 407
17:40:49 9 1008 137 0 NO 0 82.1 404
17:43:48 9 1008 133 1 SO 0 82.3 404
17:46:51 9 1008 126 0 SO 0 82.8 404
17:49:49 9 1008 119 0 SO 0 83 404
17:52:48 9 1007 112 0 SO 0 83.3 404
17:55:49 9 1007 106 0 SO 0 83.6 406
17:58:47 9 1007 100 0 SO 0 83.8 407
18:01:49 9 1008 95 0 SO 0 84.1 404
18:04:49 9 1007 88 0 SO 0 84.5 407
18:07:49 9 1008 82 0 SO 0 84.7 404
18:10:49 8 1008 75 0 SO 0 84.9 407
18:13:49 8 1008 68 0 SO 0 85.1 408
18:16:48 8 1007 60 0 SO 0 85.3 404
18:19:49 8 1008 51 0 SO 0 85.7 404
18:22:47 8 1008 40 0 SO 0 85.8 401
18:25:49 8 1008 32 0 SO 0 86.4 407
18:28:50 8 1007 24 0 SO 0 86.6 407
18:31:49 8 1008 18 0 SO 0 86.9 407
18:34:46 8 1008 13 0 N 0 87.3 407
18:37:48 8 1007 9 0 NO 0 88.4 407
18:40:46 8 1009 6 0 NO 0 88.5 407
18:43:48 8 1008 3 0 NO 0 88.3 404
18:46:48 8 1008 0 0 NO 0 88.7 407
18:49:46 8 1008 0 1 NO 0 89.1 404
18:52:48 8 1008 0 0 NO 0 89.2 404
18:55:47 8 1009 0 0 NO 0 89 407
18:58:47 8 1008 0 0 SW 0 88.9 407
19:01:48 8 1008 0 0 SW 0 88.8 404
19:04:49 7 1008 0 0 SW 0 89 402
19:07:47 8 1008 0 0 SW 0 89.4 407
19:10:47 8 1008 0 0 SW 0 89.6 407
19:13:45 8 1008 0 0 O 0 90.1 407
19:16:45 8 1007 0 0 O 0 90.4 408
19:19:46 8 1008 0 0 O 0 90.5 405
19:22:45 8 1008 0 0 O 0 90.3 408
19:25:46 8 1008 0 0 O 0 90.1 408
19:28:47 8 1008 0 0 O 0 90.2 407
19:31:45 8 1009 0 0 O 0 90.7 407
19:34:46 7 1008 0 0 O 0 90.6 407
19:37:48 7 1008 0 0 O 0 90.8 404
19:40:47 7 1009 0 0 O 0 91.1 396
19:43:47 7 1009 0 0 O 0 91.4 404
19:46:46 7 1008 0 0 O 0 91.2 407
19:49:46 7 1009 0 0 O 0 91.2 407
19:52:47 7 1009 0 0 O 0 91.4 404
19:55:48 7 1009 0 0 O 0 91.7 404
19:58:46 7 1009 0 0 O 0 91.8 407
20:01:47 7 1009 0 0 O 0 91.8 403
20:04:46 7 1008 0 0 O 0 91.8 404
20:07:47 7 1009 0 0 O 0 92.1 404
20:10:47 7 1009 0 0 O 0 92.5 404
20:13:48 7 1008 0 0 O 0 93.2 404
20:16:46 7 1008 0 0 O 0 93.3 408
20:19:46 7 1008 0 0 O 0 93 407
20:22:46 6 1007 0 0 O 0 92.8 407
20:25:48 6 1008 0 0 O 0 92.7 404
20:28:47 6 1008 0 0 O 0 93.2 404
20:31:48 6 1008 0 0 O 0 93.3 404
20:34:45 6 1008 0 0 O 0 93.3 407
20:37:47 6 1008 0 0 O 0 93.7 407
20:40:46 6 1009 0 0 O 0 94.2 407
20:43:45 5 1008 0 0 O 0 94.8 404
20:46:46 5 1009 0 0 O 0 94.9 405
20:49:46 5 1009 0 0 O 0 94.8 407
20:52:46 5 1008 0 0 O 0 94.8 404
20:55:45 5 1009 0 0 O 0 95 407
20:58:46 4 1008 0 0 O 0 95.2 407
21:01:46 4 1008 0 0 O 0 95.6 407
21:04:45 4 1008 0 0 O 0 95.7 404
21:07:47 4 1009 0 0 O 0 95.5 404
21:10:46 4 1009 0 0 O 0 95.4 407
21:13:47 4 1009 0 0 O 0 95.5 404
21:16:47 4 1008 0 0 O 0 95.9 407
21:19:45 4 1009 0 0 O 0 96.1 407
21:22:45 4 1008 0 0 O 0 96.2 407
21:25:45 4 1008 0 0 O 0 96.2 407
21:28:45 4 1009 0 0 O 0 96.2 404
21:31:45 4 1009 0 0 O 0 96.2 401
21:34:47 4 1008 0 0 O 0 96.6 407
21:37:45 4 1008 0 0 O 0 96.6 407
21:40:47 4 1009 0 0 O 0 96.6 406
21:43:46 3 1008 0 0 O 0 96.6 404
21:46:46 3 1009 0 0 S 0 96.6 406
21:49:46 4 1009 0 0 S 0 96.6 404
21:52:47 4 1008 0 0 S 0 96.6 408
21:55:47 4 1009 0 0 S 0 96.6 407
21:58:46 4 1008 0 0 SO 0 96.6 404
22:01:50 4 1008 0 0 SO 0 96.6 405
22:04:49 4 1008 0 0 SO 0 96.6 404
22:07:48 4 1008 0 0 SO 0 96.6 407
22:10:48 4 1008 0 0 SO 0 96.6 401
22:13:50 4 1009 0 0 SO 0 96.6 405
22:16:50 4 1009 0 0 SO 0 96.6 407
22:19:49 4 1009 0 1 NO 0 96.6 407
22:22:48 4 1008 0 0 NO 0 96.6 404
22:25:50 4 1008 0 0 SO 0 96.6 408
22:28:49 4 1009 0 0 SO 0 96.6 404
22:31:47 3 1009 0 0 SO 0 96.6 407
22:34:49 3 1009 0 0 SO 0 96.6 408
22:37:51 3 1009 0 0 SO 0 96.6 404
22:40:49 3 1009 0 0 SO 0 96.6 404
22:43:50 3 1009 0 0 SO 0 96.6 405
22:46:47 3 1009 0 0 SO 0 96.6 408
22:49:47 3 1009 0 0 SO 0 96.6 407
22:52:49 3 1008 0 0 SO 0 96.6 404
22:55:47 3 1008 0 0 SO 0 96.6 404
22:58:47 2 1009 0 0 SO 0 96.6 407
23:01:49 2 1009 0 0 SO 0 96.6 407
23:04:47 2 1009 0 0 SO 0 96.6 404
23:07:48 2 1009 0 0 SO 0 96.6 407
23:10:51 2 1009 0 0 SO 0 96.6 407
23:13:46 2 1009 0 0 SO 0 96.6 404
23:16:47 2 1009 0 0 SO 0 96.6 407
23:19:46 2 1010 0 0 SO 0 96.6 407
23:22:46 2 1009 0 0 SO 0 96.6 407
23:25:48 2 1009 0 0 SO 0 96.6 407
23:28:48 2 1009 0 0 SO 0 96.6 407
23:31:46 2 1009 0 0 SO 0 96.6 407
23:34:46 2 1009 0 0 SO 0 96.6 407
23:37:46 2 1009 0 0 SO 0 96.6 407
23:40:49 2 1009 0 0 SO 0 96.6 406
23:43:48 2 1009 0 0 SO 0 96.6 407
23:46:48 2 1009 0 0 SO 0 96.6 407
23:49:48 2 1009 0 0 SO 0 96.6 405
23:52:45 1 1009 0 0 SO 0 96.6 401
23:55:47 1 1009 0 0 SO 0 96.6 407
23:58:47 1 1009 0 0 SO 0 96.6 407

Letzte Änderung : 22-Jul-2022
Copyright Jens Köhler, Wolfsburg, Obere Dorfstraße 10d